This demonstration page uses our WeatherBlox Daily Observations layout. Learn more.

Left ArrowRight Arrow

39.92423, -83.80882

Hourly Observations for August 12, 2016

Temp ( °F °C ) Dew Point ( °F °C ) Humidity (%) Winds ( mph kmh ) Pressure ( in mb ) Visibility ( mi km ) Precip ( " mm )
12:56 am 00:56 Mostly Clear 76 24.4 72 22.2 88 88 SSW 3 6 29.98 1015 10 16.0934 N/A
1:56 am 01:56 Cloudy 75 23.9 72 22.2 90 90 SW 5 7 29.98 1015 10 16.0934 N/A
2:56 am 02:56 Mostly Clear 74 23.3 72 22.2 94 94 SW 7 11 29.97 1015 10 16.0934 N/A
3:56 am 03:56 Mostly Cloudy 74 23.3 72 22.2 94 94 SSW 5 7 29.96 1015 10 16.0934 N/A
4:56 am 04:56 Mostly Cloudy 75 23.9 72 22.2 90 90 SSW 6 9 29.95 1014 10 16.0934 N/A
5:56 am 05:56 Clear 74 23.3 72 22.2 94 94 SSW 7 11 29.95 1014 10 16.0934 N/A
6:56 am 06:56 Sunny 73 22.8 71 21.7 94 94 SW 6 9 29.96 1015 10 16.0934 N/A
7:56 am 07:56 Sunny 76 24.4 73 22.8 91 91 undefined N/A N/A 10 16.0934 N/A
8:56 am 08:56 Sunny 79 26.1 74 23.3 85 85 SW 8 13 29.96 1015 10 16.0934 N/A
10:56 am 10:56 Mostly Cloudy 83 28.3 75 23.9 77 77 SSW 6 9 N/A 10 16.0934 N/A
11:56 am 11:56 Mostly Cloudy 85 29.4 75 23.9 72 72 undefined N/A 29.95 1014 10 16.0934 N/A
12:04 pm 12:04 Mostly Cloudy 84 29 73 23 70 70 WSW 9 15 29.91 1013 10 16.0934 N/A
12:13 pm 12:13 Cloudy with Light Rain 82 28 73 23 74 74 WSW 9 15 N/A 10 16.0934 N/A
12:56 pm 12:56 Mostly Cloudy 87 30.6 76 24.4 70 70 SW 10 17 29.93 1014 10 16.0934 N/A
1:56 pm 13:56 Mostly Cloudy 86 30 74 23.3 67 67 S 10 17 29.91 1013 10 16.0934 N/A
2:56 pm 14:56 Mostly Cloudy 88 31.1 75 23.9 66 66 S 7 11 29.91 1013 10 16.0934 N/A
3:56 pm 15:56 Cloudy with Nearby Thunderstorms 80 26.7 73 22.8 79 79 WSW 8 13 29.91 1013 10 16.0934 N/A
4:00 pm 16:00 Cloudy with Nearby Thunderstorms 79 26 75 24 89 89 WNW 9 15 29.88 1012 10 16.0934 0.01 0.254
4:38 pm 16:38 Cloudy 81 27 75 24 84 84 N N/A N/A 10 16.0934 0.03 0.762
4:56 pm 16:56 Cloudy 84 28.9 76 24.4 77 77 S 3 6 29.89 1012 10 16.0934 0.03 0.762
5:56 pm 17:56 Cloudy with Light Rain 82 27.8 73 22.8 74 74 SW 16 26 29.89 1012 10 16.0934 0.01 0.254
6:56 pm 18:56 Partly Cloudy 82 27.8 75 23.9 79 79 undefined N/A N/A 10 16.0934 N/A
7:56 pm 19:56 Cloudy 83 28.3 75 23.9 77 77 S 6 9 29.87 1011 10 16.0934 N/A
8:56 pm 20:56 Cloudy 80 26.7 74 23.3 82 82 S 3 6 29.88 1012 7 11.26538 N/A
9:56 pm 21:56 Cloudy 79 26.1 74 23.3 85 85 S 5 7 29.91 1013 10 16.0934 N/A
10:56 pm 22:56 Cloudy 80 26.7 74 23.3 82 82 S 5 7 29.91 1013 10 16.0934 N/A
11:56 pm 23:56 Cloudy 79 26.1 74 23.3 85 85 S 6 9 29.9 1013 10 16.0934 N/A

Powered by AerisWeather